This demonstration page uses our WeatherBlox Daily Observations layout. Learn more.

39.29038, -76.61219

Hourly Observations for December 8, 2019

Temp ( °F °C ) Dew Point ( °F °C ) Humidity (%) Winds ( mph kmh ) Pressure ( in mb ) Visibility ( mi km ) Precip ( " mm )
12:54 am 00:54 undefined 34 1.1 23 -5 64 64 undefined N/A 30.5 1033 N/A 0 0
1:54 am 01:54 undefined 34 1.1 22 -5.6 61 61 undefined N/A 30.5 1033 N/A 0 0
2:54 am 02:54 undefined 34 1.1 23 -5 64 64 undefined N/A 30.51 1033 N/A 0 0
3:54 am 03:54 undefined 33 0.6 24 -4.4 70 70 undefined N/A 30.51 1033 N/A 0 0
4:54 am 04:54 undefined 32 0 23 -5 69 69 undefined N/A 30.51 1033 N/A 0 0
5:54 am 05:54 undefined 32 0 22 -5.6 66 66 undefined N/A 30.51 1033 N/A 0 0
6:54 am 06:54 undefined 32 0 23 -5 69 69 undefined N/A 30.52 1033 N/A 0 0
7:54 am 07:54 undefined 32 0 23 -5 69 69 undefined N/A 30.52 1034 N/A 0 0
8:54 am 08:54 undefined 35 1.7 24 -4.4 64 64 undefined N/A 30.53 1034 N/A 0 0
9:54 am 09:54 undefined 37 2.8 25 -3.9 62 62 undefined N/A 30.53 1034 N/A 0 0
10:54 am 10:54 undefined 42 5.6 28 -2.2 58 58 undefined N/A 30.51 1033 N/A 0 0
11:54 am 11:54 undefined 45 7.2 27 -2.8 49 49 undefined N/A 30.48 1032 N/A 0 0
12:54 pm 12:54 undefined 47 8.3 30 -1.1 52 52 undefined N/A 30.45 1031 N/A 0 0
1:54 pm 13:54 undefined 45 7.2 28 -2.2 52 52 undefined N/A 30.42 1030 N/A 0 0
2:54 pm 14:54 undefined 45 7.2 28 -2.2 52 52 undefined N/A 30.4 1030 N/A 0 0
3:54 pm 15:54 undefined 45 7.2 29 -1.7 54 54 undefined N/A 30.39 1029 N/A 0 0
4:54 pm 16:54 undefined 44 6.7 32 0 63 63 undefined N/A 30.38 1029 N/A 0 0
5:54 pm 17:54 undefined 44 6.7 34 1.1 68 68 undefined N/A 30.38 1029 N/A 0 0
6:54 pm 18:54 undefined 44 6.7 35 1.7 71 71 undefined N/A 30.36 1028 N/A 0 0
7:54 pm 19:54 undefined 45 7.2 36 2.2 71 71 undefined N/A 30.37 1028 N/A 0 0
8:54 pm 20:54 undefined 45 7.2 36 2.2 71 71 undefined N/A 30.35 1028 N/A 0 0
9:54 pm 21:54 undefined 45 7.2 36 2.2 71 71 undefined N/A 30.35 1028 N/A 0 0
10:54 pm 22:54 undefined 45 7.2 38 3.3 77 77 undefined N/A 30.34 1027 N/A 0 0
11:54 pm 23:54 undefined 44 6.7 39 3.9 83 83 undefined N/A 30.3 1026 N/A 0 0

Powered by AerisWeather